Weather in Yuzhnii

Kazakhstan     49°21′40″N   72°54′17″E
temp.,
°C
wind,
m/s
gust,
m/s
humid.,
%
clouds,
%
prec.,
mm/h
press.,
hPa
HPBL,
m
26 july, mon
mon2600:00+22nnw5106536 0.0 1007352
03:00+19nw22675 0.0 100728
06:00+18n488115 0.0 1009395
09:00+21nne786357 0.0 1010938
12:00+24n77380 0.0 10101382
15:00+26n87270 0.0 10092075
18:00+25n87294 0.0 10092389
21:00+21n7103884 0.0 1011517
27 july, tue
tue2700:00+18nne484530 0.0 1012255
03:00+18ene594146 0.0 1011439
06:00+14nne335322 0.0 101341
09:00+18ne44391 0.0 1014857
12:00+21nne43320 0.0 10122021
15:00+23n54275 0.0 10112437
18:00+23n65275 0.0 10102363
21:00+18n59375 0.0 1012224
28 july, wed
wed2800:00+14nne38445 0.0 1012171
03:00+12ne22535 0.0 101214
06:00+11e22550 0.0 101217
09:00+17ne23390 0.0 1012576
12:00+21n22260 0.0 10111929
15:00+24nnw32210 0.0 10092331
18:00+24nnw42210 0.0 10082258
21:00+19nne46325 0.0 100984
29 july, thu
thu2900:00+16ne3340100 0.0 101029
03:00+14ene234592 0.0 101020
06:00+13ene3348100 0.0 101021
09:00+19ene3534100 0.0 1010415
12:00+23ne4327100 0.0 10091654
15:00+25n5323100 0.0 10082749
18:00+24n5422100 0.0 10082391
21:00+20nne812371 0.0 1010407
30 july, fri
fri3000:00+14ne34630 0.0 101255
03:00+13ene33700 0.0 101342
06:00+12e22700 0.0 101318
09:00+20ene22400 0.0 1013396
12:00+25w13240 0.0 10122115
15:00+28nw44170 0.0 10112717
18:00+28nw54188 0.0 10102720
21:00+21nnw4527100 0.0 101260